| time (UTC) | temp F | wind direction | speed MPH | gust MPH | rain 1hr in | rain 24hr in | rain mn in | humidity % | barometer mb |
| 20260507063028 | 61 | 291 | 0.0 | 2.0 | 0.00 | 0.00 | 0.00 | 75 | 1016.5 |
| 20260507061526 | 61 | 308 | 0.0 | 4.0 | 0.00 | 0.00 | 0.00 | 75 | 1016.5 |
| 20260507060027 | 61 | 249 | 0.0 | 0.0 | 0.00 | 0.00 | 0.00 | 75 | 1016.5 |
| 20260507054523 | 61 | 249 | 0.0 | 0.0 | 0.00 | 0.00 | 0.00 | 75 | 1016.5 |
| 20260507053024 | 62 | 249 | 0.0 | 0.0 | 0.00 | 0.00 | 0.00 | 74 | 1016.3 |
| 20260507051522 | 62 | 300 | 0.0 | 0.0 | 0.00 | 0.00 | 0.00 | 73 | 1016.4 |
| 20260507050038 | 63 | 308 | 0.0 | 4.0 | 0.00 | 0.00 | 0.00 | 72 | 1016.3 |
| 20260507044520 | 63 | 294 | 3.0 | 6.0 | 0.00 | 0.00 | 0.00 | 71 | 1016.1 |
| 20260507043020 | 64 | 312 | 2.0 | 6.0 | 0.00 | 0.00 | 0.00 | 70 | 1016.0 |
| 20260507041519 | 64 | 257 | 4.0 | 9.0 | 0.00 | 0.00 | 0.00 | 70 | 1015.9 |
| 20260507040019 | 65 | 304 | 3.0 | 8.0 | 0.00 | 0.00 | 0.00 | 69 | 1015.7 |
| 20260507034521 | 65 | 306 | 2.0 | 9.0 | 0.00 | 0.00 | 0.00 | 68 | 1015.5 |
| 20260507033019 | 66 | 278 | 3.0 | 8.0 | 0.00 | 0.00 | 0.00 | 67 | 1015.4 |
| 20260507031517 | 66 | 286 | 2.0 | 6.0 | 0.00 | 0.00 | 0.00 | 65 | 1015.2 |
| 20260507030018 | 67 | 281 | 2.0 | 8.0 | 0.00 | 0.00 | 0.00 | 64 | 1015.0 |
| 20260507024516 | 68 | 301 | 2.0 | 11.0 | 0.00 | 0.00 | 0.00 | 63 | 1014.9 |
| 20260507023015 | 68 | 344 | 3.0 | 8.0 | 0.00 | 0.00 | 0.00 | 61 | 1014.7 |
| 20260507021515 | 69 | 269 | 2.0 | 8.0 | 0.00 | 0.00 | 0.00 | 58 | 1014.6 |
| 20260507020015 | 71 | 308 | 2.0 | 11.0 | 0.00 | 0.00 | 0.00 | 56 | 1014.5 |
| 20260507014513 | 71 | 251 | 3.0 | 10.0 | 0.00 | 0.00 | 0.00 | 54 | 1014.4 |
| 20260507013012 | 72 | 211 | 1.0 | 10.0 | 0.00 | 0.00 | 0.00 | 53 | 1014.2 |
| 20260507011516 | 73 | 321 | 3.0 | 11.0 | 0.00 | 0.00 | 0.00 | 53 | 1014.1 |
| 20260507010014 | 74 | 281 | 4.0 | 12.0 | 0.00 | 0.00 | 0.00 | 50 | 1014.0 |
| 20260507004509 | 75 | 217 | 5.0 | 13.0 | 0.00 | 0.00 | 0.00 | 49 | 1013.9 |
| 20260507003009 | 75 | 219 | 5.0 | 11.0 | 0.00 | 0.00 | 0.00 | 47 | 1013.9 |
| 20260507001509 | 76 | 261 | 4.0 | 13.0 | 0.00 | 0.00 | 0.00 | 46 | 1013.7 |
| 20260507000008 | 77 | 256 | 7.0 | 12.0 | 0.00 | 0.00 | 0.00 | 45 | 1013.8 |
| 20260506234506 | 77 | 231 | 4.0 | 12.0 | 0.00 | 0.00 | 0.00 | 46 | 1013.6 |
| 20260506233006 | 78 | 291 | 5.0 | 11.0 | 0.00 | 0.00 | 0.00 | 44 | 1013.7 |
| 20260506231506 | 78 | 312 | 3.0 | 14.0 | 0.00 | 0.00 | 0.00 | 45 | 1013.8 |
| 20260506230003 | 78 | 293 | 4.0 | 11.0 | 0.00 | 0.00 | 0.00 | 43 | 1013.9 |
| 20260506224502 | 79 | 262 | 2.0 | 14.0 | 0.00 | 0.00 | 0.00 | 44 | 1014.0 |
| 20260506223104 | 78 | 318 | 5.0 | 12.0 | 0.00 | 0.00 | 0.00 | 44 | 1014.1 |
| 20260506223001 | 78 | 323 | 6.0 | 12.0 | 0.00 | 0.00 | 0.00 | 43 | 1014.2 |
| 20260506221603 | 79 | 172 | 1.0 | 7.0 | 0.00 | 0.00 | 0.00 | 42 | 1014.2 |
| 20260506220057 | 78 | 229 | 3.0 | 10.0 | 0.00 | 0.00 | 0.00 | 42 | 1014.5 |
| 20260506214556 | 78 | 215 | 2.0 | 10.0 | 0.00 | 0.00 | 0.00 | 43 | 1014.6 |
| 20260506213055 | 77 | 198 | 5.0 | 10.0 | 0.00 | 0.00 | 0.00 | 42 | 1014.9 |
| 20260506211553 | 77 | 296 | 1.0 | 13.0 | 0.00 | 0.00 | 0.00 | 43 | 1015.0 |
| 20260506210048 | 76 | 309 | 5.0 | 9.0 | 0.00 | 0.00 | 0.00 | 44 | 1015.4 |
| 20260506204542 | 74 | 312 | 2.0 | 7.0 | 0.00 | 0.00 | 0.00 | 44 | 1015.5 |
| 20260506203040 | 75 | 311 | 4.0 | 7.0 | 0.00 | 0.00 | 0.00 | 43 | 1015.7 |
| 20260506201539 | 74 | 260 | 2.0 | 6.0 | 0.00 | 0.00 | 0.00 | 45 | 1015.9 |
| 20260506200036 | 72 | 245 | 2.0 | 9.0 | 0.00 | 0.00 | 0.00 | 47 | 1016.2 |
| 20260506194531 | 73 | 332 | 1.0 | 7.0 | 0.00 | 0.00 | 0.00 | 46 | 1016.3 |
| 20260506193042 | 73 | 318 | 0.0 | 6.0 | 0.00 | 0.00 | 0.00 | 47 | 1016.5 |
| 20260506191525 | 72 | 243 | 0.0 | 5.0 | 0.00 | 0.00 | 0.00 | 47 | 1016.7 |
| 20260506190023 | 70 | 297 | 3.0 | 10.0 | 0.00 | 0.00 | 0.00 | 50 | 1016.9 |
| 20260506184519 | 68 | 65 | 2.0 | 10.0 | 0.00 | 0.00 | 0.00 | 53 | 1017.1 |
| 20260506183019 | 68 | 314 | 2.0 | 7.0 | 0.00 | 0.00 | 0.00 | 53 | 1017.3 |
| 20260506181533 | 68 | 1 | 2.0 | 9.0 | 0.00 | 0.00 | 0.00 | 53 | 1017.4 |
| 20260506180017 | 69 | 346 | 2.0 | 8.0 | 0.00 | 0.00 | 0.00 | 53 | 1017.5 |
| 20260506174515 | 67 | 89 | 0.0 | 7.0 | 0.00 | 0.00 | 0.00 | 55 | 1017.4 |
| 20260506173012 | 66 | 138 | 1.0 | 6.0 | 0.00 | 0.00 | 0.00 | 60 | 1017.5 |
| 20260506171516 | 67 | 211 | 1.0 | 5.0 | 0.00 | 0.00 | 0.00 | 59 | 1017.6 |
| 20260506170009 | 64 | 302 | 1.0 | 4.0 | 0.00 | 0.00 | 0.00 | 62 | 1017.6 |
| 20260506164510 | 64 | 260 | 0.0 | 4.0 | 0.00 | 0.00 | 0.00 | 62 | 1017.7 |
| 20260506163014 | 64 | 115 | 1.0 | 6.0 | 0.00 | 0.00 | 0.00 | 63 | 1017.7 |
| 20260506161505 | 63 | 205 | 1.0 | 4.0 | 0.00 | 0.00 | 0.00 | 64 | 1017.7 |
| 20260506160003 | 62 | 180 | 1.0 | 4.0 | 0.00 | 0.00 | 0.00 | 67 | 1017.7 |
| 20260506154612 | 61 | 86 | 0.0 | 3.0 | 0.00 | 0.00 | 0.00 | 70 | 1017.7 |
| 20260506153056 | 61 | 99 | 1.0 | 2.0 | 0.00 | 0.00 | 0.00 | 71 | 1017.8 |
| 20260506151552 | 59 | 105 | 0.0 | 2.0 | 0.00 | 0.00 | 0.00 | 75 | 1017.8 |
| 20260506150050 | 58 | 49 | 1.0 | 2.0 | 0.00 | 0.00 | 0.00 | 76 | 1017.8 |
| 20260506144552 | 58 | 66 | 0.0 | 2.0 | 0.00 | 0.00 | 0.00 | 79 | 1017.9 |
| 20260506143042 | 56 | 106 | 0.0 | 1.0 | 0.00 | 0.00 | 0.00 | 81 | 1017.8 |
| 20260506141541 | 55 | 321 | 0.0 | 0.0 | 0.00 | 0.00 | 0.00 | 82 | 1017.8 |
| 20260506140038 | 55 | 320 | 0.0 | 0.0 | 0.00 | 0.00 | 0.00 | 87 | 1017.8 |
| 20260506134536 | 52 | 320 | 0.0 | 0.0 | 0.00 | 0.00 | 0.00 | 92 | 1017.7 |
| 20260506133039 | 50 | 321 | 0.0 | 0.0 | 0.00 | 0.00 | 0.00 | 92 | 1017.4 |
| 20260506131534 | 49 | 321 | 0.0 | 0.0 | 0.00 | 0.00 | 0.00 | 93 | 1017.2 |
| 20260506130029 | 49 | 321 | 0.0 | 0.0 | 0.00 | 0.00 | 0.00 | 92 | 1017.0 |
| 20260506124526 | 49 | 321 | 0.0 | 0.0 | 0.00 | 0.00 | 0.00 | 92 | 1017.1 |
| 20260506123025 | 49 | 321 | 0.0 | 0.0 | 0.00 | 0.00 | 0.00 | 92 | 1016.9 |
| 20260506121522 | 49 | 321 | 0.0 | 0.0 | 0.00 | 0.00 | 0.00 | 92 | 1016.8 |
| 20260506120023 | 49 | 321 | 0.0 | 0.0 | 0.00 | 0.00 | 0.00 | 92 | 1016.7 |
| 20260506114522 | 49 | 321 | 0.0 | 0.0 | 0.00 | 0.13 | 0.00 | 91 | 1016.7 |
| 20260506113016 | 50 | 321 | 0.0 | 0.0 | 0.00 | 0.13 | 0.00 | 90 | 1016.7 |
| 20260506111515 | 51 | 321 | 0.0 | 0.0 | 0.00 | 0.13 | 0.00 | 91 | 1016.7 |
| 20260506110015 | 51 | 320 | 0.0 | 0.0 | 0.00 | 0.14 | 0.00 | 91 | 1016.6 |
| 20260506104532 | 51 | 320 | 0.0 | 0.0 | 0.00 | 0.14 | 0.00 | 91 | 1016.6 |
| 20260506103011 | 50 | 321 | 0.0 | 0.0 | 0.00 | 0.14 | 0.00 | 89 | 1016.6 |
| 20260506101509 | 51 | 320 | 0.0 | 0.0 | 0.00 | 0.14 | 0.00 | 88 | 1016.6 |
| 20260506100005 | 52 | 321 | 0.0 | 0.0 | 0.00 | 0.14 | 0.00 | 88 | 1016.6 |
| 20260506094503 | 52 | 320 | 0.0 | 0.0 | 0.00 | 0.14 | 0.00 | 88 | 1016.6 |
| 20260506093101 | 53 | 321 | 0.0 | 1.0 | 0.00 | 0.14 | 0.00 | 86 | 1016.6 |
| 20260506091602 | 53 | 320 | 0.0 | 1.0 | 0.00 | 0.14 | 0.00 | 86 | 1016.6 |
| 20260506090057 | 53 | 321 | 0.0 | 1.0 | 0.00 | 0.14 | 0.00 | 85 | 1016.6 |
| 20260506084555 | 53 | 321 | 0.0 | 1.0 | 0.00 | 0.14 | 0.00 | 85 | 1016.7 |
| 20260506083054 | 54 | 321 | 0.0 | 1.0 | 0.00 | 0.14 | 0.00 | 84 | 1016.9 |
| 20260506081558 | 54 | 320 | 0.0 | 1.0 | 0.00 | 0.14 | 0.00 | 83 | 1016.9 |
| 20260506073049 | 54 | 321 | 0.0 | 0.0 | 0.00 | 0.14 | 0.00 | 83 | 1016.9 |
| 20260506071546 | 54 | 321 | 0.0 | 0.0 | 0.00 | 0.14 | 0.00 | 82 | 1016.9 |